TimeAST,TemperatureF,Dew PointF,Humidity,Sea Level PressureIn,VisibilityMPH,Wind Direction,Wind SpeedMPH,Gust SpeedMPH,PrecipitationIn,Events,Conditions,WindDirDegrees,DateUTC
12:00 AM,91.4,44.6,20,29.56,-9999.0,NW,6.9,-,N/A,,Clear,310,2013-05-31 21:00:00
12:30 AM,89.6,48.2,24,29.56,-9999.0,NW,6.9,-,N/A,,Clear,310,2013-05-31 21:30:00
1:00 AM,87.8,53.6,31,29.56,-9999.0,West,3.5,-,N/A,,Clear,270,2013-05-31 22:00:00
1:30 AM,87.8,51.8,29,29.56,-9999.0,West,3.5,-,N/A,,Clear,260,2013-05-31 22:30:00
2:00 AM,87.8,53.6,31,29.56,-9999.0,Variable,2.3,-,N/A,,Clear,0,2013-05-31 23:00:00
2:30 AM,86.0,51.8,31,29.56,-9999.0,WSW,3.5,-,N/A,,Clear,240,2013-05-31 23:30:00
3:00 AM,85,53,23,29.58,6,WSW,5.8,,,,,250,2013-06-01 00:00:00
3:00 AM,86.0,53.6,33,29.56,-9999.0,WSW,5.8,-,N/A,,Clear,250,2013-06-01 00:00:00
3:30 AM,86.0,55.4,35,29.56,-9999.0,WSW,4.6,-,N/A,,Clear,240,2013-06-01 00:30:00
4:00 AM,84.2,55.4,37,29.56,-9999.0,SW,5.8,-,N/A,,Clear,220,2013-06-01 01:00:00
4:30 AM,82.4,55.4,39,29.59,-9999.0,SW,5.8,-,N/A,,Clear,230,2013-06-01 01:30:00
5:00 AM,82.4,55.4,39,29.59,-9999.0,Variable,2.3,-,N/A,,Clear,0,2013-06-01 02:00:00
5:30 AM,84.2,55.4,37,29.59,-9999.0,WSW,4.6,-,N/A,,Clear,240,2013-06-01 02:30:00
6:00 AM,86.0,55.4,35,29.59,-9999.0,WSW,4.6,-,N/A,,Clear,250,2013-06-01 03:00:00
6:30 AM,87.8,51.8,29,29.59,-9999.0,WSW,5.8,-,N/A,,Clear,240,2013-06-01 03:30:00
7:00 AM,91.4,50.0,24,29.59,-9999.0,WSW,4.6,-,N/A,,Clear,250,2013-06-01 04:00:00
7:30 AM,93.2,48.2,21,29.59,5.6,Variable,4.6,-,N/A,,Unknown,0,2013-06-01 04:30:00
8:00 AM,95.0,50.0,22,29.59,5.6,WSW,4.6,-,N/A,,Unknown,250,2013-06-01 05:00:00
8:30 AM,98.6,51.8,21,29.59,5.6,Variable,2.3,-,N/A,,Unknown,0,2013-06-01 05:30:00
9:00 AM,101,44,8,29.62,6,WNW,6.9,,,,Widespread Dust,290,2013-06-01 06:00:00
9:00 AM,100.4,44.6,15,29.62,5.6,WNW,6.9,-,N/A,,Unknown,290,2013-06-01 06:00:00
9:30 AM,100.4,44.6,15,29.62,5.6,West,8.1,-,N/A,,Unknown,280,2013-06-01 06:30:00
10:00 AM,102.2,42.8,13,29.62,5.6,WNW,8.1,-,N/A,,Unknown,290,2013-06-01 07:00:00
10:30 AM,104.0,48.2,15,29.62,-9999.0,WNW,10.4,-,N/A,,Clear,290,2013-06-01 07:30:00
11:00 AM,104.0,42.8,12,29.59,5.6,WNW,10.4,-,N/A,,Unknown,300,2013-06-01 08:00:00
11:30 AM,105.8,42.8,12,29.59,5.6,NW,10.4,-,N/A,,Unknown,310,2013-06-01 08:30:00
12:00 PM,107.6,39.2,10,29.59,5.6,NNW,11.5,-,N/A,,Unknown,330,2013-06-01 09:00:00
12:30 PM,107.6,39.2,10,29.59,5.6,NW,12.7,-,N/A,,Unknown,320,2013-06-01 09:30:00
1:00 PM,107.6,37.4,9,29.59,5.6,NNW,13.8,-,N/A,,Unknown,330,2013-06-01 10:00:00
1:30 PM,107.6,39.2,10,29.56,5.6,NW,11.5,-,N/A,,Unknown,310,2013-06-01 10:30:00
2:00 PM,107.6,37.4,9,29.56,5.6,NNW,12.7,-,N/A,,Unknown,330,2013-06-01 11:00:00
2:30 PM,109.4,42.8,11,29.56,5.6,North,13.8,-,N/A,,Unknown,10,2013-06-01 11:30:00
3:00 PM,100,67,25,29.57,6,ENE,9.2,,,,Widespread Dust,60,2013-06-01 12:00:00
3:00 PM,100.4,68.0,35,29.56,5.6,ENE,9.2,-,N/A,,Unknown,60,2013-06-01 12:00:00
3:30 PM,98.6,66.2,35,29.56,5.6,ENE,8.1,-,N/A,,Unknown,60,2013-06-01 12:30:00
4:00 PM,98.6,66.2,35,29.56,5.6,NE,8.1,-,N/A,,Unknown,50,2013-06-01 13:00:00
4:30 PM,96.8,69.8,41,29.53,5.6,East,5.8,-,N/A,,Unknown,90,2013-06-01 13:30:00
5:00 PM,93.2,69.8,46,29.53,5.6,East,8.1,-,N/A,,Unknown,100,2013-06-01 14:00:00
5:30 PM,93.2,69.8,46,29.53,5.6,ESE,8.1,-,N/A,,Unknown,110,2013-06-01 14:30:00
6:00 PM,93.2,66.2,41,29.53,5.6,ESE,9.2,-,N/A,,Unknown,120,2013-06-01 15:00:00
6:30 PM,89.6,75.2,62,29.53,5.6,SE,8.1,-,N/A,,Unknown,140,2013-06-01 15:30:00
7:00 PM,89.6,71.6,55,29.53,-9999.0,SE,8.1,-,N/A,,Clear,140,2013-06-01 16:00:00
7:30 PM,89.6,73.4,59,29.56,-9999.0,SE,6.9,-,N/A,,Clear,130,2013-06-01 16:30:00
8:00 PM,89.6,73.4,59,29.56,-9999.0,SE,5.8,-,N/A,,Clear,140,2013-06-01 17:00:00
8:30 PM,89.6,73.4,59,29.56,5.6,SE,3.5,-,N/A,,Unknown,130,2013-06-01 17:30:00
9:00 PM,89,73,50,29.60,6,SE,3.5,,,,Widespread Dust,130,2013-06-01 18:00:00
9:00 PM,87.8,73.4,62,29.59,5.6,SE,3.5,-,N/A,,Unknown,130,2013-06-01 18:00:00
9:30 PM,89.6,71.6,55,29.59,5.6,South,3.5,-,N/A,,Unknown,180,2013-06-01 18:30:00
10:00 PM,89.6,73.4,59,29.59,5.6,SW,4.6,-,N/A,,Unknown,220,2013-06-01 19:00:00
10:30 PM,87.8,73.4,62,29.56,5.6,SSW,4.6,-,N/A,,Unknown,210,2013-06-01 19:30:00
11:00 PM,87.8,75.2,66,29.56,5.6,SSW,4.6,-,N/A,,Unknown,210,2013-06-01 20:00:00
11:30 PM,87.8,73.4,62,29.56,5.6,SW,4.6,-,N/A,,Unknown,230,2013-06-01 20:30:00